Regional Weather Roundup
Issued by NWS

Home | Current Version | Previous Version | Text Only | Print | Product List | Glossary On
Versions: 1 2 3 4 5 6 7 8 9 10 11 12 13 14 15 16 17 18 19 20 21 22 23 24 25 26 27 28
000
ASUS45 KSLC 201410
RWRUT

UTAH REGIONAL WEATHER ROUNDUP
NATIONAL WEATHER SERVICE SALT LAKE CITY UT
700 AM MST TUE FEB 20 2018

UTZ001>011-023>025-201500-

NORTHERN UTAH

CITY           SKY/WX    TMP DP  RH WIND       PRES   REMARKS
BRIGHAM CITY   CLOUDY    16   8  68 NW5       29.99R WCI   9
HILL AFB       FLURRIES  14  10  85 CALM      29.95R
LOGAN          CLOUDY    16   8  71 N8        29.96R WCI   5
OGDEN          CLOUDY    15  10  80 CALM      29.96R
SALT LAKE CITY LGT SNOW  21  17  84 S3        29.98R FOG
TOOELE VALLEY  CLOUDY    14   9  79 CALM      29.99R
WENDOVER       CLOUDY    16   5  62 SW3       30.00R
HEBER CITY     LGT SNOW   5   1  85 SW3       29.88R
WEST JORDAN    CLOUDY    14  14 100 CALM      29.98R

$$

UTZ011>015-024>027-201500-

CENTRAL/NORTHEAST UTAH

CITY           SKY/WX    TMP DP  RH WIND       PRES   REMARKS
PROVO AIRPORT  LGT SNOW  19  15  84 SE5       29.99R WCI  12
MOAB/CANYONLAN PTCLDY   N/A N/A N/A SW5       29.89R
DELTA          CLOUDY     9   5  85 E3        29.97R
PRICE          CLEAR     14  -1  51 CALM      29.84R
RICHFIELD      PTCLDY    12  12 100 CALM      29.94R
VERNAL         CLOUDY    -2  -6  83 N5        29.93R WCI -12

$$

UTZ013>016-019>022-027-201500-

SOUTHERN UTAH

CITY           SKY/WX    TMP DP  RH WIND       PRES   REMARKS
BRYCE CANYON   PTCLDY    -7 -11  83 N5        29.82R WCI -18
CEDAR CITY     CLOUDY    12   5  73 SE8       29.92R WCI   0
MILFORD        MOCLDY     9   6  88 W3        29.94R
ST GEORGE      MOSUNNY   29  21  72 CALM      30.03R
HANKSVILLE     PTCLDY    14   3  62 CALM      29.95R
KANAB          PTCLDY    16  10  79 CALM      29.98R
BLANDING         N/A     17   9  69 CALM      29.94R

$$

REGIONAL REPORTS     COLORADO/ARIZONA

CITY           SKY/WX    TMP DP  RH WIND       PRES   REMARKS
CRAIG, CO      CLOUDY    -6 -11  79 CALM      29.88R HAZE
GRAND JUNCTION MOCLDY    15  15 100 NW3       29.90R
RIFLE, CO      CLOUDY    13  10  88 CALM      29.88R
MONTROSE, CO   LGT SNOW  17  15  92 NE3       29.89R FOG
CORTEZ, CO     PTCLDY     5   3  91 NE6       29.90R WCI  -6
COLORADO CITY    N/A     18  14  86 CALM      29.96S
PAGE, AZ       PTCLDY    26  10  50 SW5       29.93R WCI  20
GRAND CANYON   PTCLDY    -9 -14  78 CALM      29.90R HAZE
KINGMAN, AZ    CLEAR     20  10  65 SE8       30.00R WCI  10
FLAGSTAFF, AZ  CLEAR      3  -1  83 CALM      29.88R

$$

REGIONAL REPORTS    NEVADA/IDAHO/WYOMING

CITY           SKY/WX    TMP DP  RH WIND       PRES   REMARKS
LAS VEGAS, NV  CLEAR     37   6  27 NW9       30.05R WCI  30
ELY, NY        CLOUDY     3  -2  79 SE7       29.91R WCI  -9
ELKO, NV       CLOUDY    13   8  81 S6        29.99R WCI   4
POCATELLO, ID  LGT SNOW  11   4  73 SW16G26   29.98R WCI  -6
BURLEY, ID       N/A      9   1  70 W15       30.01R WCI  -8
EVANSTON, WY   CLEAR     -1  -4  87 SW9       29.78R WCI -16
ROCK SPRINGS,  PTCLDY    -6 -14  68 NE3       29.80R

$$




USA.gov is the U.S. government's official web portal to all federal, state and local government web resources and services.